Date String (YYYY-MM-DD hh:mm:ss) UTC,Instrument flags,absolute air pressure of the measurement (hPa),sample flow rate (lpm),inlet stack bypass flow (lpm),air temperature of the measurement (°C),ambient temperature measured by the external sensor (°C),aerosol sample conditioner tube jacket temperature (°C),OPC LED temperature (°C),internal box temperature (°C),relative humidity of the measurement (%),span deviation,mass concentration of particles derived from Lorenz-Mie calculation of OPC scattering (μg/m³),mass concentration of particles derived from Lorenz-Mie calculation of OPC scattering (μg/m³),mass concentration of particles derived from Lorenz-Mie calculation of OPC scattering (μg/m³)
DateTimeUTC,F1_M11,P_M11,Q1_M11,Q2_M11,T1_M11,T2_M11,T3_M11,T4_M11,T5_M11,U1_M11,ZSPAN_M11,X2_M11,X0_M11,X1_M11
2023-08-17 02:00:00,SystemResetWarning,0831.8,5.00,000.00,027.3,024.1,000.0,035.6,028.7,25.5,0000.0,0003.86,0008.32,0003.42
2023-08-17 02:01:00,SystemResetWarning,0832.0,5.00,000.00,027.3,024.6,000.0,035.6,028.8,25.6,0000.0,0003.80,0008.14,0003.41
2023-08-17 02:02:00,SystemResetWarning,0831.8,5.00,000.00,027.3,025.0,000.0,035.7,029.0,25.6,0000.0,0003.75,0008.31,0003.38
2023-08-17 02:03:00,SystemResetWarning,0831.8,5.00,000.00,027.4,025.4,000.0,035.7,029.1,25.3,0000.0,0003.71,0008.17,0003.36
2023-08-17 02:04:00,SystemResetWarning,0831.9,5.00,000.00,027.4,025.8,000.0,035.7,029.2,25.0,0000.0,0003.68,0007.39,0003.35
2023-08-17 02:05:00,SystemResetWarning,0831.9,5.01,000.00,027.5,026.1,000.0,035.8,029.3,24.7,0000.0,0003.64,0006.53,0003.34
2023-08-17 02:06:00,SystemResetWarning,0831.8,4.99,000.00,027.5,026.1,000.0,035.8,029.4,24.6,0000.0,0003.63,0006.39,0003.33
2023-08-17 02:07:00,SystemResetWarning,0832.0,4.98,000.00,027.5,024.6,000.0,035.7,029.1,24.4,0000.0,0003.60,0006.93,0003.30
2023-08-17 02:08:00,SystemResetWarning,0832.0,5.01,000.00,027.4,023.5,000.0,035.6,028.9,24.0,0000.0,0003.58,0007.02,0003.29
2023-08-17 02:09:00,SystemResetWarning,0831.7,5.01,000.00,027.4,023.7,000.0,035.6,028.8,24.0,0000.0,0003.53,0006.83,0003.25
2023-08-17 02:10:00,SystemResetWarning,0831.7,5.00,000.00,027.3,024.1,000.0,035.6,028.7,24.2,0000.0,0003.50,0006.73,0003.22
2023-08-17 02:11:00,SystemResetWarning,0831.7,5.00,000.00,027.3,024.5,000.0,035.6,028.8,24.3,0000.0,0003.45,0006.58,0003.20
2023-08-17 02:12:00,SystemResetWarning,0832.1,5.01,000.00,027.3,024.9,000.0,035.7,029.0,24.2,0000.0,0003.41,0006.33,0003.16
2023-08-17 02:13:00,SystemResetWarning,0831.7,5.00,000.00,027.4,025.3,000.0,035.7,029.1,24.3,0000.0,0003.36,0005.66,0003.13
2023-08-17 02:14:00,SystemResetWarning,0831.7,5.00,000.00,027.4,025.7,000.0,035.7,029.2,24.3,0000.0,0003.32,0005.47,0003.10
2023-08-17 02:15:00,SystemResetWarning,0831.8,5.01,000.00,027.5,026.0,000.0,035.8,029.3,24.3,0000.0,0003.30,0005.50,0003.05
2023-08-17 02:16:00,SystemResetWarning,0831.8,5.00,000.00,027.5,026.2,000.0,035.8,029.4,24.3,0000.0,0003.26,0005.31,0003.00
2023-08-17 02:17:00,SystemResetWarning,0832.0,4.99,000.00,027.6,026.3,000.0,035.8,029.5,24.4,0000.0,0003.22,0005.54,0002.97
2023-08-17 02:18:00,SystemResetWarning,0831.9,4.99,000.00,027.6,025.2,000.0,035.8,029.2,24.5,0000.0,0003.23,0005.05,0002.96
2023-08-17 02:19:00,SystemResetWarning,0831.8,5.02,000.00,027.5,023.8,000.0,035.7,028.8,24.6,0000.0,0003.26,0004.97,0002.96
2023-08-17 02:20:00,SystemResetWarning,0831.8,5.01,000.00,027.4,023.7,000.0,035.6,028.8,24.8,0000.0,0003.29,0005.07,0002.98
2023-08-17 02:21:00,SystemResetWarning,0831.8,4.99,000.00,027.4,024.1,000.0,035.6,028.8,25.1,0000.0,0003.29,0005.06,0003.01
2023-08-17 02:22:00,SystemResetWarning,0831.9,5.01,000.00,027.3,024.5,000.0,035.7,028.9,25.3,0000.0,0003.31,0005.09,0003.03
2023-08-17 02:23:00,SystemResetWarning,0831.9,5.00,000.00,027.4,024.9,000.0,035.7,029.0,25.3,0000.0,0003.37,0005.99,0003.06
2023-08-17 02:24:00,SystemResetWarning,0832.0,5.00,000.00,027.4,025.3,000.0,035.7,029.2,25.3,0000.0,0003.44,0006.70,0003.10
2023-08-17 02:25:00,SystemResetWarning,0832.0,5.00,000.00,027.5,025.7,000.0,035.8,029.3,25.1,0000.0,0003.50,0007.50,0003.13
2023-08-17 02:26:00,SystemResetWarning,0832.0,5.00,000.00,027.5,026.0,000.0,035.8,029.4,24.9,0000.0,0003.52,0008.52,0003.15
2023-08-17 02:27:00,SystemResetWarning,0832.0,5.00,000.00,027.6,026.3,000.0,035.9,029.4,24.8,0000.0,0003.54,0008.61,0003.17
2023-08-17 02:28:00,SystemResetWarning,0832.0,4.99,000.00,027.6,026.1,000.0,035.8,029.4,24.9,0000.0,0003.57,0008.70,0003.19
2023-08-17 02:29:00,SystemResetWarning,0832.0,5.00,000.00,027.6,024.6,000.0,035.8,029.1,25.1,0000.0,0003.58,0008.62,0003.21
2023-08-17 02:30:00,SystemResetWarning,0832.0,5.01,000.00,027.5,023.6,000.0,035.7,028.8,25.3,0000.0,0003.58,0008.56,0003.23
2023-08-17 02:31:00,SystemResetWarning,0832.1,5.01,000.00,027.4,023.9,000.0,035.6,028.8,25.5,0000.0,0003.59,0008.59,0003.24
2023-08-17 02:32:00,SystemResetWarning,0832.1,4.99,000.00,027.4,024.2,000.0,035.7,028.9,25.6,0000.0,0003.60,0008.59,0003.24
2023-08-17 02:33:00,SystemResetWarning,0832.1,5.00,000.00,027.4,024.7,000.0,035.7,029.0,25.7,0000.0,0003.60,0008.60,0003.25
2023-08-17 02:34:00,SystemResetWarning,0832.0,5.00,000.00,027.4,025.1,000.0,035.7,029.1,25.7,0000.0,0003.60,0008.26,0003.26
2023-08-17 02:35:00,SystemResetWarning,0832.1,5.01,000.00,027.5,025.5,000.0,035.8,029.2,25.8,0000.0,0003.59,0008.07,0003.26
2023-08-17 02:36:00,SystemResetWarning,0832.2,4.99,000.00,027.5,025.8,000.0,035.8,029.3,25.7,0000.0,0003.59,0007.62,0003.27
2023-08-17 02:37:00,SystemResetWarning,0832.2,4.99,000.00,027.5,026.1,000.0,035.9,029.4,25.5,0000.0,0003.64,0006.27,0003.28
2023-08-17 02:38:00,SystemResetWarning,0832.2,4.99,000.00,027.6,026.3,000.0,035.9,029.5,25.4,0000.0,0003.67,0006.23,0003.28
2023-08-17 02:39:00,SystemResetWarning,0832.2,5.00,000.00,027.6,025.6,000.0,035.8,029.4,25.3,0000.0,0003.66,0005.97,0003.29
2023-08-17 02:40:00,SystemResetWarning,0832.2,5.00,000.00,027.6,024.0,000.0,035.8,029.0,25.2,0000.0,0003.66,0006.07,0003.29
2023-08-17 02:41:00,SystemResetWarning,0832.2,5.00,000.00,027.5,023.6,000.0,035.7,028.8,25.4,0000.0,0003.67,0006.39,0003.29
2023-08-17 02:42:00,SystemResetWarning,0832.2,5.01,000.00,027.4,023.9,000.0,035.7,028.8,25.5,0000.0,0003.68,0006.50,0003.29
2023-08-17 02:43:00,SystemResetWarning,0832.2,5.00,000.00,027.4,024.3,000.0,035.7,028.9,25.4,0000.0,0003.70,0006.61,0003.30
2023-08-17 02:44:00,SystemResetWarning,0832.2,5.00,000.00,027.4,024.7,000.0,035.7,029.0,25.5,0000.0,0003.69,0006.62,0003.31
2023-08-17 02:45:00,SystemResetWarning,0832.2,5.00,000.00,027.4,025.2,000.0,035.8,029.1,25.4,0000.0,0003.72,0007.32,0003.31
2023-08-17 02:46:00,SystemResetWarning,0832.2,5.00,000.00,027.5,025.6,000.0,035.8,029.2,25.3,0000.0,0003.70,0007.17,0003.30
2023-08-17 02:47:00,SystemResetWarning,0832.2,5.00,000.00,027.5,025.9,000.0,035.8,029.3,25.1,0000.0,0003.71,0007.16,0003.31
2023-08-17 02:48:00,SystemResetWarning,0832.2,5.00,000.00,027.6,026.2,000.0,035.9,029.4,25.0,0000.0,0003.71,0007.35,0003.31
2023-08-17 02:49:00,SystemResetWarning,0832.2,4.98,000.00,027.6,026.3,000.0,035.9,029.5,24.9,0000.0,0003.72,0008.05,0003.31
2023-08-17 02:50:00,SystemResetWarning,0832.3,4.99,000.00,027.6,025.1,000.0,035.8,029.2,24.7,0000.0,0003.73,0008.00,0003.32
2023-08-17 02:51:00,SystemResetWarning,0832.3,5.00,000.00,027.5,023.7,000.0,035.7,028.8,24.8,0000.0,0003.73,0008.11,0003.31
2023-08-17 02:52:00,SystemResetWarning,0832.3,5.01,000.00,027.4,023.6,000.0,035.7,028.7,25.0,0000.0,0003.73,0008.10,0003.31
2023-08-17 02:53:00,SystemResetWarning,0832.3,5.01,000.00,027.4,024.0,000.0,035.7,028.7,24.9,0000.0,0003.72,0008.41,0003.31
2023-08-17 02:54:00,SystemResetWarning,0832.3,5.00,000.00,027.3,024.4,000.0,035.7,028.8,24.9,0000.0,0003.71,0008.53,0003.30
2023-08-17 02:55:00,SystemResetWarning,0832.4,5.00,000.00,027.4,024.9,000.0,035.7,029.0,24.7,0000.0,0003.71,0008.81,0003.29
2023-08-17 02:56:00,SystemResetWarning,0832.4,5.00,000.00,027.4,025.3,000.0,035.8,029.1,24.3,0000.0,0003.69,0008.46,0003.28
2023-08-17 02:57:00,SystemResetWarning,0832.5,5.00,000.00,027.5,025.7,000.0,035.8,029.2,24.2,0000.0,0003.70,0008.38,0003.29
2023-08-17 02:58:00,SystemResetWarning,0832.6,5.00,000.00,027.5,026.0,000.0,035.8,029.3,23.9,0000.0,0003.70,0008.61,0003.29
2023-08-17 02:59:00,SystemResetWarning,0832.5,5.00,000.00,027.6,026.2,000.0,035.9,029.4,23.8,0000.0,0003.68,0008.54,0003.27
